• In Hungary
  • List of Countries
  • For 7 days
  • Water Temperature
  • Satellite Maps
  • Weather Map
  • News
  • Weather Widgets
  • user-avatar
    Login

    Hourly Weather Borken

    Today, 22 October, Monday

    Time Temperature Precipitation Wind Pressure Humidity
    00:00 +11°C° 0 mm 1 mps 765 mmHg 76%
    01:00 +11°C° 0 mm 1 mps 765 mmHg 78%
    02:00 +11°C° 0 mm 1 mps 765 mmHg 80%
    03:00 +10°C° 0 mm 2 mps 765 mmHg 82%
    04:00 +10°C° 0.2 mm 2 mps 766 mmHg 83%
    05:00 +10°C° 0.2 mm 3 mps 766 mmHg 85%
    06:00 +11°C° 0.2 mm 3 mps 767 mmHg 87%
    07:00 +11°C° 0.2 mm 4 mps 767 mmHg 84%
    08:00 +11°C° 0.2 mm 4 mps 767 mmHg 82%
    09:00 +12°C° 0.2 mm 5 mps 768 mmHg 80%
    10:00 +12°C° 0 mm 5 mps 768 mmHg 73%
    11:00 +13°C° 0 mm 5 mps 769 mmHg 67%
    12:00 +13°C° 0 mm 5 mps 769 mmHg 60%
    13:00 +13°C° 0 mm 5 mps 769 mmHg 59%
    14:00 +13°C° 0 mm 4 mps 769 mmHg 58%
    15:00 +12°C° 0 mm 4 mps 770 mmHg 57%
    16:00 +11°C° 0 mm 3 mps 770 mmHg 60%
    17:00 +10°C° 0 mm 3 mps 770 mmHg 62%
    18:00 +9°C° 0 mm 2 mps 770 mmHg 64%
    19:00 +8°C° 0 mm 2 mps 771 mmHg 68%
    20:00 +8°C° 0 mm 2 mps 771 mmHg 71%
    21:00 +7°C° 0 mm 2 mps 771 mmHg 75%
    22:00 +7°C° 0 mm 2 mps 770 mmHg 76%
    23:00 +7°C° 0 mm 2 mps 770 mmHg 76%

    Tomorrow, 23 October, Tuesday

    Time Temperature Precipitation Wind Pressure Humidity
    00:00 +7°C° 0 mm 3 mps 770 mmHg 77%
    01:00 +7°C° 0 mm 3 mps 769 mmHg 77%
    02:00 +6°C° 0 mm 4 mps 769 mmHg 76%
    03:00 +6°C° 0 mm 5 mps 768 mmHg 76%
    04:00 +6°C° 0 mm 5 mps 767 mmHg 77%
    05:00 +7°C° 0 mm 5 mps 767 mmHg 77%
    06:00 +7°C° 0 mm 6 mps 766 mmHg 78%
    07:00 +8°C° 0 mm 6 mps 766 mmHg 77%
    08:00 +9°C° 0 mm 6 mps 766 mmHg 77%
    09:00 +10°C° 0 mm 6 mps 765 mmHg 77%
    10:00 +10°C° 0 mm 7 mps 765 mmHg 75%
    11:00 +11°C° 0 mm 7 mps 764 mmHg 74%
    12:00 +12°C° 0 mm 7 mps 764 mmHg 73%
    13:00 +12°C° 0 mm 7 mps 764 mmHg 72%
    14:00 +12°C° 0 mm 7 mps 763 mmHg 72%
    15:00 +12°C° 0 mm 7 mps 763 mmHg 71%
    16:00 +13°C° 0 mm 6 mps 763 mmHg 72%
    17:00 +13°C° 0 mm 6 mps 763 mmHg 73%
    18:00 +11°C° 0 mm 6 mps 763 mmHg 74%
    19:00 +13°C° 0 mm 6 mps 762 mmHg 75%
    20:00 +13°C° 0 mm 6 mps 762 mmHg 75%
    21:00 +13°C° 0 mm 6 mps 762 mmHg 76%
    22:00 +13°C° 0 mm 6 mps 762 mmHg 79%
    23:00 +13°C° 0 mm 6 mps 762 mmHg 81%

    Day after tomorrow, 24 October, Wednesday

    Time Temperature Precipitation Wind Pressure Humidity
    00:00 +12°C° 0 mm 7 mps 762 mmHg 83%
    01:00 +12°C° 0.3 mm 7 mps 762 mmHg 85%
    02:00 +13°C° 0.3 mm 6 mps 762 mmHg 86%
    03:00 +14°C° 0.3 mm 6 mps 762 mmHg 88%
    04:00 +14°C° 0.2 mm 6 mps 762 mmHg 88%
    05:00 +14°C° 0.2 mm 6 mps 762 mmHg 88%
    06:00 +13°C° 0.2 mm 5 mps 762 mmHg 88%
    07:00 +13°C° 0.1 mm 5 mps 762 mmHg 88%
    08:00 +13°C° 0.1 mm 5 mps 763 mmHg 87%
    09:00 +13°C° 0.1 mm 5 mps 763 mmHg 87%
    10:00 +14°C° 0.1 mm 4 mps 763 mmHg 85%
    11:00 +14°C° 0.1 mm 4 mps 764 mmHg 84%
    12:00 +14°C° 0.1 mm 4 mps 764 mmHg 82%
    13:00 +14°C° 0.1 mm 4 mps 764 mmHg 83%
    14:00 +14°C° 0.1 mm 4 mps 764 mmHg 84%
    15:00 +14°C° 0.1 mm 4 mps 763 mmHg 84%
    16:00 +14°C° 0 mm 4 mps 764 mmHg 86%
    17:00 +13°C° 0 mm 3 mps 764 mmHg 87%
    18:00 +13°C° 0 mm 3 mps 764 mmHg 89%
    19:00 +13°C° 0 mm 3 mps 764 mmHg 89%
    20:00 +13°C° 0 mm 3 mps 764 mmHg 90%
    21:00 +13°C° 0 mm 3 mps 764 mmHg 91%
    22:00 +13°C° 0 mm 3 mps 764 mmHg 92%
    23:00 +13°C° 0 mm 3 mps 764 mmHg 92%

    25 October, Thursday

    Time Temperature Precipitation Wind Pressure Humidity
    00:00 +12°C° 0 mm 3 mps 764 mmHg 93%
    01:00 +12°C° 0 mm 3 mps 763 mmHg 93%
    02:00 +12°C° 0 mm 3 mps 763 mmHg 93%
    03:00 +12°C° 0 mm 4 mps 762 mmHg 93%
    04:00 +12°C° 0 mm 3 mps 762 mmHg 92%
    05:00 +12°C° 0 mm 3 mps 762 mmHg 92%
    06:00 +12°C° 0 mm 3 mps 761 mmHg 92%
    07:00 +13°C° 0.1 mm 3 mps 761 mmHg 91%
    08:00 +13°C° 0.1 mm 4 mps 761 mmHg 90%
    09:00 +13°C° 0.1 mm 4 mps 761 mmHg 89%
    10:00 +14°C° 0.1 mm 4 mps 761 mmHg 85%
    11:00 +14°C° 0.1 mm 4 mps 760 mmHg 81%
    12:00 +14°C° 0.1 mm 4 mps 760 mmHg 77%
    13:00 +14°C° 0 mm 4 mps 759 mmHg 76%
    14:00 +14°C° 0 mm 4 mps 759 mmHg 75%
    15:00 +13°C° 0 mm 4 mps 758 mmHg 74%
    16:00 +13°C° 0 mm 3 mps 758 mmHg 75%
    17:00 +12°C° 0 mm 3 mps 758 mmHg 76%
    18:00 +12°C° 0 mm 3 mps 757 mmHg 77%
    19:00 +11°C° 0 mm 3 mps 757 mmHg 77%
    20:00 +11°C° 0 mm 3 mps 757 mmHg 78%
    21:00 +11°C° 0 mm 3 mps 756 mmHg 79%
    22:00 +10°C° 0 mm 3 mps 756 mmHg 81%
    23:00 +10°C° 0 mm 3 mps 755 mmHg 83%

    26 October, Friday

    Time Temperature Precipitation Wind Pressure Humidity
    00:00 +9°C° 0 mm 3 mps 755 mmHg 85%
    01:00 +9°C° 0 mm 3 mps 754 mmHg 85%
    02:00 +8°C° 0 mm 4 mps 754 mmHg 86%
    03:00 +8°C° 0 mm 4 mps 753 mmHg 87%
    04:00 +8°C° 0 mm 4 mps 753 mmHg 87%
    05:00 +7°C° 0 mm 4 mps 752 mmHg 87%
    06:00 +7°C° 0 mm 4 mps 752 mmHg 87%
    07:00 +8°C° 0 mm 5 mps 752 mmHg 84%
    08:00 +9°C° 0 mm 5 mps 752 mmHg 81%
    09:00 +10°C° 0 mm 5 mps 752 mmHg 78%
    10:00 +10°C° 0.1 mm 5 mps 752 mmHg 76%
    11:00 +10°C° 0.1 mm 5 mps 751 mmHg 74%
    12:00 +11°C° 0.1 mm 4 mps 751 mmHg 72%
    13:00 +11°C° 0.1 mm 4 mps 751 mmHg 71%
    14:00 +11°C° 0.1 mm 3 mps 751 mmHg 69%
    15:00 +10°C° 0.1 mm 2 mps 751 mmHg 68%
    16:00 +10°C° 0 mm 2 mps 750 mmHg 68%
    17:00 +9°C° 0 mm 2 mps 750 mmHg 69%
    18:00 +8°C° 0 mm 2 mps 750 mmHg 69%
    19:00 +8°C° 0 mm 2 mps 750 mmHg 70%
    20:00 +7°C° 0 mm 2 mps 750 mmHg 71%
    21:00 +7°C° 0 mm 2 mps 750 mmHg 72%
    22:00 +7°C° 0 mm 2 mps 749 mmHg 74%
    23:00 +6°C° 0 mm 2 mps 749 mmHg 76%

    27 October, Saturday

    Time Temperature Precipitation Wind Pressure Humidity
    00:00 +6°C° 0 mm 2 mps 749 mmHg 78%
    01:00 +6°C° 0 mm 2 mps 749 mmHg 80%
    02:00 +5°C° 0 mm 2 mps 748 mmHg 81%
    03:00 +5°C° 0 mm 2 mps 748 mmHg 83%
    04:00 +5°C° 0 mm 2 mps 748 mmHg 83%
    05:00 +5°C° 0 mm 2 mps 748 mmHg 84%
    06:00 +4°C° 0 mm 2 mps 748 mmHg 84%
    07:00 +4°C° 0 mm 3 mps 748 mmHg 77%
    08:00 +6°C° 0 mm 4 mps 748 mmHg 70%
    09:00 +7°C° 0 mm 4 mps 748 mmHg 63%
    10:00 +8°C° 0 mm 4 mps 748 mmHg 59%
    11:00 +9°C° 0 mm 5 mps 748 mmHg 54%
    12:00 +10°C° 0 mm 5 mps 748 mmHg 50%
    13:00 +10°C° 0.1 mm 4 mps 748 mmHg 52%
    14:00 +10°C° 0.1 mm 3 mps 747 mmHg 55%
    15:00 +10°C° 0.1 mm 2 mps 747 mmHg 57%
    16:00 +9°C° 0.1 mm 2 mps 747 mmHg 62%
    17:00 +7°C° 0.1 mm 2 mps 748 mmHg 67%
    18:00 +6°C° 0.1 mm 2 mps 748 mmHg 72%
    19:00 +6°C° 0 mm 2 mps 748 mmHg 74%
    20:00 +6°C° 0 mm 1 mps 748 mmHg 77%
    21:00 +6°C° 0 mm 1 mps 748 mmHg 79%
    22:00 +6°C° 0 mm 1 mps 749 mmHg 81%
    23:00 +5°C° 0 mm 1 mps 749 mmHg 82%

    28 October, Sunday

    Time Temperature Precipitation Wind Pressure Humidity
    00:00 +5°C° 0 mm 1 mps 749 mmHg 84%
    01:00 +5°C° 0 mm 1 mps 749 mmHg 85%
    02:00 +4°C° 0 mm 1 mps 750 mmHg 87%
    03:00 +4°C° 0 mm 1 mps 750 mmHg 88%
    04:00 +3°C° 0 mm 2 mps 750 mmHg 89%
    05:00 +3°C° 0 mm 2 mps 751 mmHg 90%
    06:00 +2°C° 0 mm 3 mps 751 mmHg 91%
    07:00 +3°C° 0 mm 3 mps 752 mmHg 87%
    08:00 +4°C° 0 mm 4 mps 752 mmHg 83%
    09:00 +5°C° 0 mm 5 mps 753 mmHg 78%
    10:00 +6°C° 0.1 mm 5 mps 753 mmHg 75%
    11:00 +6°C° 0.1 mm 5 mps 753 mmHg 71%
    12:00 +6°C° 0.1 mm 5 mps 754 mmHg 68%
    13:00 +6°C° 0.1 mm 5 mps 754 mmHg 66%
    14:00 +6°C° 0.1 mm 5 mps 754 mmHg 64%
    15:00 +6°C° 0.1 mm 4 mps 754 mmHg 63%
    16:00 +5°C° 0 mm 4 mps 754 mmHg 68%
    17:00 +4°C° 0 mm 4 mps 755 mmHg 73%
    18:00 +3°C° 0 mm 3 mps 755 mmHg 78%
    19:00 +3°C° 0 mm 3 mps 755 mmHg 81%
    20:00 +2°C° 0 mm 3 mps 756 mmHg 85%
    21:00 +3°C° 0 mm 2 mps 756 mmHg 88%
    22:00 +3°C° 0 mm 2 mps 756 mmHg 90%
    23:00 +3°C° 0 mm 2 mps 756 mmHg 91%
    Show more